Location: *
(53.4003°S, 165.3236°W)
Time: 01:51:09
(UTC+00:00)

SL-16 R/B - Pass Details

Date: 11 December 2023
Orbit: 842 x 846 km, 71.0° (Epoch: 24 February)

Event Time Altitude Azimuth Distance (km) Brightness Sun altitude
Rises 12:38:35 0° 213° (SSW) 3,444 5.9 -10.3°
Reaches altitude 10° 12:41:14 10° 204° (SSW) 2,505 5.3 -10.2°
Maximum altitude 12:46:37 39° 136° (SE) 1,279 3.8 -9.8°
Drops below altitude 10° 12:51:56 10° 67° (ENE) 2,489 4.7 -9.5°
Sets 12:54:33 0° 59° (ENE) 3,419 5.3 -9.3°
